M I D A S
Marine Information and Data Acquisition System
Tripno 1763 of the Zeeleeuw from 2009-07-13 06:44:58 to 2009-07-13 15:15:57
Back to CruiseResearch ActivitiesStationsMapUnderway DataData graphs

EquipmentUnitsComments
TimeDGPSUTC
LatitudeDGPSDM.mWGS84
LongitudeDGPSDM.mWGS84
SpeedMeteo Stationm/sRelative wind speed
DirectionMeteo StationdegRelative wind direction
TemperatureMeteo Stationdeg CelciusAir temperature
PressureMeteo StationPaAtmospheric pressure
HumidityMeteo Station%Relative humidity
Missing or incorrect values are displayed as -999
Metereological data collected by the RV Zeeleeuw from 2009-07-13 06:47:44 to 2009-07-13 15:25:07
                                                                                    Next 1000 lines
Time Latitude Longitude Speed Direction Temperature Pressure Humidity
2009-07-13 06:47:53 51°13.662 2°55.956 3.6 21 15.4 101140 91
2009-07-13 06:47:59 51°13.662 2°55.954 3.8 28 15.4 101140 91
2009-07-13 06:48:04 51°13.663 2°55.951 3.1 23 15.4 101140 91
2009-07-13 06:48:08 51°13.664 2°55.948 3.5 16 15.4 101140 91
2009-07-13 06:48:13 51°13.665 2°55.944 4.1 21 15.4 101140 91
2009-07-13 06:48:18 51°13.666 2°55.94 3.6 19 15.4 101140 91
2009-07-13 06:48:24 51°13.668 2°55.934 3.6 30 15.4 101140 91
2009-07-13 06:48:29 51°13.669 2°55.929 4 26 15.5 101140 90
2009-07-13 06:48:34 51°13.671 2°55.923 3.3 37 15.5 101140 90
2009-07-13 06:48:39 51°13.672 2°55.918 2.8 37 15.5 101140 90
2009-07-13 06:48:44 51°13.674 2°55.912 3.4 38 15.5 101140 90
2009-07-13 06:48:49 51°13.675 2°55.905 3.8 31 15.5 101140 91
2009-07-13 06:48:54 51°13.677 2°55.898 3.6 40 15.5 101140 91
2009-07-13 06:48:59 51°13.678 2°55.891 3.8 43 15.5 101140 91
2009-07-13 06:49:04 51°13.68 2°55.884 2.6 36 15.5 101140 91
2009-07-13 06:49:09 51°13.681 2°55.877 3 45 15.6 101140 91
2009-07-13 06:49:14 51°13.683 2°55.869 3.3 39 15.6 101140 91
2009-07-13 06:49:19 51°13.684 2°55.862 3.6 41 15.5 101140 90
2009-07-13 06:49:24 51°13.686 2°55.854 3 37 15.5 101140 90
2009-07-13 06:49:29 51°13.687 2°55.847 3.5 22 15.6 101140 90
2009-07-13 06:49:34 51°13.688 2°55.839 3 33 15.6 101140 90
2009-07-13 06:49:39 51°13.689 2°55.832 4.8 77 15.6 101130 90
2009-07-13 06:49:44 51°13.69 2°55.825 4.1 40 15.6 101130 90
2009-07-13 06:49:49 51°13.691 2°55.818 2.6 44 15.6 101140 90
2009-07-13 06:49:54 51°13.692 2°55.811 2.6 40 15.6 101140 90
2009-07-13 06:49:59 51°13.692 2°55.804 3 40 15.6 101140 90
2009-07-13 06:50:04 51°13.693 2°55.797 2.9 41 15.6 101140 90
2009-07-13 06:50:09 51°13.693 2°55.791 4 44 15.6 101140 90
2009-07-13 06:50:14 51°13.693 2°55.785 3.5 43 15.6 101140 90
2009-07-13 06:50:19 51°13.694 2°55.779 4.6 37 15.6 101140 90
2009-07-13 06:50:24 51°13.694 2°55.774 3.8 37 15.6 101140 90
2009-07-13 06:50:29 51°13.694 2°55.769 3.2 28 15.6 101140 90
2009-07-13 06:50:33 51°13.694 2°55.764 3.5 43 15.6 101140 90
2009-07-13 06:50:38 51°13.694 2°55.759 4.8 83 15.6 101140 90
2009-07-13 06:50:43 51°13.694 2°55.755 5.5 36 15.6 101140 90
2009-07-13 06:50:48 51°13.694 2°55.75 5.5 44 15.6 101140 89
2009-07-13 06:50:53 51°13.694 2°55.746 5.9 45 15.6 101140 89
2009-07-13 06:50:57 51°13.694 2°55.743 4.9 76 15.6 101140 89
2009-07-13 06:51:02 51°13.694 2°55.741 5.2 45 15.7 101140 89
2009-07-13 06:51:07 51°13.695 2°55.738 5.9 84 15.7 101140 89
2009-07-13 06:51:12 51°13.695 2°55.737 5 39 15.6 101140 89
2009-07-13 06:51:17 51°13.695 2°55.736 4.2 77 15.6 101140 89
2009-07-13 06:51:22 51°13.695 2°55.735 3.7 40 15.6 101140 89
2009-07-13 06:51:27 51°13.696 2°55.735 3.6 78 15.6 101140 89
2009-07-13 06:51:32 51°13.697 2°55.735 3 32 15.6 101140 89
2009-07-13 06:51:36 51°13.698 2°55.735 2 82 15.6 101140 89
2009-07-13 06:51:41 51°13.699 2°55.736 2.2 32 15.6 101140 89
2009-07-13 06:51:46 51°13.701 2°55.736 1.7 81 15.7 101140 89
2009-07-13 06:51:51 51°13.702 2°55.737 1.7 31 15.7 101140 89
2009-07-13 06:51:56 51°13.704 2°55.738 1.6 79 15.6 101140 89
2009-07-13 06:52:00 51°13.706 2°55.739 2.2 39 15.7 101140 89
2009-07-13 06:52:05 51°13.709 2°55.74 1.8 76 15.7 101140 89
2009-07-13 06:52:10 51°13.712 2°55.741 2.3 40 15.7 101130 89
2009-07-13 06:52:16 51°13.716 2°55.741 2.5 76 15.7 101130 89
2009-07-13 06:52:20 51°13.719 2°55.741 3 36 15.8 101140 89
2009-07-13 06:52:25 51°13.722 2°55.74 2.9 81 15.8 101140 89
2009-07-13 06:52:30 51°13.726 2°55.738 2.8 26 15.8 101140 89
2009-07-13 06:52:35 51°13.731 2°55.736 1.9 279 15.8 101140 89
2009-07-13 06:52:40 51°13.735 2°55.733 2.4 261 15.8 101140 89
2009-07-13 06:52:45 51°13.74 2°55.728 2.3 286 15.8 101140 89
2009-07-13 06:52:51 51°13.746 2°55.722 2.4 251 15.8 101140 89
2009-07-13 06:52:55 51°13.75 2°55.718 3 281 15.8 101140 89
2009-07-13 06:53:00 51°13.756 2°55.711 2.8 241 15.8 101130 89
2009-07-13 06:53:05 51°13.761 2°55.704 3.2 280 15.8 101130 89
2009-07-13 06:53:11 51°13.769 2°55.695 3.2 240 15.8 101130 89
2009-07-13 06:53:16 51°13.776 2°55.688 3.3 283 15.8 101130 89
2009-07-13 06:53:20 51°13.782 2°55.682 2.6 241 15.8 101130 89
2009-07-13 06:53:25 51°13.789 2°55.674 1.8 283 15.9 101130 89
2009-07-13 06:53:30 51°13.797 2°55.666 2.2 320 15.9 101130 89
2009-07-13 06:53:35 51°13.805 2°55.657 2.8 286 15.9 101130 89
2009-07-13 06:53:40 51°13.814 2°55.649 2.5 35 15.9 101130 89
2009-07-13 06:53:45 51°13.823 2°55.64 3.1 284 15.9 101130 89
2009-07-13 06:53:51 51°13.834 2°55.629 3.5 320 15.9 101130 89
2009-07-13 06:53:56 51°13.844 2°55.62 3.5 276 15.9 101130 89
2009-07-13 06:54:00 51°13.852 2°55.613 2.4 39 15.9 101120 88
2009-07-13 06:54:05 51°13.862 2°55.604 1.9 284 15.9 101120 88
2009-07-13 06:54:10 51°13.873 2°55.595 3 322 15.9 101120 88
2009-07-13 06:54:15 51°13.883 2°55.586 3.7 282 15.9 101120 88
2009-07-13 06:54:20 51°13.894 2°55.578 1.9 323 16 101120 88
2009-07-13 06:54:24 51°13.903 2°55.57 3.4 279 16 101120 88
2009-07-13 06:54:30 51°13.916 2°55.56 4.5 33 16 101120 88
2009-07-13 06:54:35 51°13.927 2°55.551 4.4 285 16 101120 88
2009-07-13 06:54:40 51°13.938 2°55.543 4.9 31 16 101120 88
2009-07-13 06:54:44 51°13.948 2°55.536 2.4 286 16 101120 88
2009-07-13 06:54:50 51°13.962 2°55.526 3.2 325 16 101120 88
2009-07-13 06:54:55 51°13.973 2°55.517 3.4 286 16 101120 88
2009-07-13 06:55:00 51°13.985 2°55.509 3.4 323 16 101120 88
2009-07-13 06:55:05 51°13.996 2°55.5 3.2 284 16 101120 88
2009-07-13 06:55:10 51°14.008 2°55.492 2.9 316 16 101110 88
2009-07-13 06:55:15 51°14.02 2°55.484 2.2 280 16 101110 88
2009-07-13 06:55:20 51°14.031 2°55.475 3.7 38 16 101120 87
2009-07-13 06:55:25 51°14.043 2°55.466 2.9 281 16 101120 87
2009-07-13 06:55:29 51°14.052 2°55.46 3.8 317 16 101120 87
2009-07-13 06:55:35 51°14.066 2°55.449 3 281 16 101120 87
2009-07-13 06:55:40 51°14.078 2°55.441 3.4 327 16 101120 87
2009-07-13 06:55:45 51°14.09 2°55.432 2.9 285 16.1 101120 87
2009-07-13 06:55:51 51°14.104 2°55.422 3.8 317 16.1 101120 87
2009-07-13 06:55:56 51°14.116 2°55.413 4.5 279 16.1 101120 87
2009-07-13 06:56:00 51°14.126 2°55.406 4.9 317 16.1 101120 87
2009-07-13 06:56:05 51°14.137 2°55.397 4.5 283 16.1 101120 87
2009-07-13 06:56:11 51°14.151 2°55.385 3.5 32 16.1 101120 87
2009-07-13 06:56:16 51°14.162 2°55.374 4.3 285 16.1 101120 87
2009-07-13 06:56:20 51°14.172 2°55.366 3.9 322 16.1 101120 87
2009-07-13 06:56:25 51°14.183 2°55.356 4.2 279 16.1 101120 87
2009-07-13 06:56:30 51°14.194 2°55.345 3.4 325 16.1 101120 86
2009-07-13 06:56:36 51°14.207 2°55.331 4.5 279 16.1 101120 86
2009-07-13 06:56:40 51°14.215 2°55.321 5.2 319 16.1 101120 87
2009-07-13 06:56:45 51°14.226 2°55.308 4.6 278 16.1 101120 87
2009-07-13 06:56:50 51°14.236 2°55.294 4.5 233 16.1 101120 87
2009-07-13 06:56:56 51°14.247 2°55.277 5.5 283 16.1 101120 87
2009-07-13 06:57:00 51°14.254 2°55.265 6.3 38 16.1 101120 86
2009-07-13 06:57:04 51°14.261 2°55.252 5.7 279 16.1 101120 86
2009-07-13 06:57:10 51°14.272 2°55.234 5.6 35 16.1 101120 86
2009-07-13 06:57:15 51°14.28 2°55.218 7.7 279 16.1 101120 86
2009-07-13 06:57:20 51°14.289 2°55.202 6.4 236 16.1 101120 86
2009-07-13 06:57:24 51°14.296 2°55.189 6.7 277 16.1 101120 86
2009-07-13 06:57:30 51°14.306 2°55.169 5.9 39 16.1 101110 86
2009-07-13 06:57:35 51°14.315 2°55.152 5.6 286 16.1 101110 86
2009-07-13 06:57:40 51°14.323 2°55.135 4.6 37 16.1 101110 85
2009-07-13 06:57:45 51°14.332 2°55.119 4.7 284 16.1 101110 85
2009-07-13 06:57:50 51°14.341 2°55.101 5.5 31 16.1 101110 81
2009-07-13 06:57:55 51°14.349 2°55.085 6.5 285 16.1 101110 81
2009-07-13 06:58:00 51°14.358 2°55.067 7.5 37 16.1 101110 82
2009-07-13 06:58:06 51°14.368 2°55.047 7.3 281 16.1 101110 82
2009-07-13 06:58:11 51°14.377 2°55.03 7.7 37 16.1 101120 83
2009-07-13 06:58:16 51°14.386 2°55.013 6.7 280 16.1 101120 83
2009-07-13 06:58:20 51°14.393 2°54.999 6.5 36 16.1 101120 86
2009-07-13 06:58:25 51°14.403 2°54.982 6.3 280 16.1 101120 86
2009-07-13 06:58:31 51°14.414 2°54.961 7.9 31 16.1 101110 83
2009-07-13 06:58:36 51°14.423 2°54.943 6.4 278 16.1 101110 83
2009-07-13 06:58:40 51°14.431 2°54.929 7.5 236 16.1 101110 84
2009-07-13 06:58:45 51°14.441 2°54.912 6.7 278 16.1 101110 84
2009-07-13 06:58:51 51°14.454 2°54.893 6.7 238 16.1 101110 84
2009-07-13 06:58:56 51°14.465 2°54.877 5.8 279 16.1 101110 84
2009-07-13 06:59:00 51°14.474 2°54.865 7 236 16.1 101110 86
2009-07-13 06:59:05 51°14.485 2°54.85 5.9 280 16.1 101110 86
2009-07-13 06:59:11 51°14.499 2°54.832 6.9 237 16.1 101110 86
2009-07-13 06:59:15 51°14.509 2°54.821 6.1 283 16.2 101110 86
2009-07-13 06:59:20 51°14.521 2°54.808 6.7 32 16.2 101110 86
2009-07-13 06:59:24 51°14.532 2°54.798 6.4 282 16.2 101110 86
2009-07-13 06:59:30 51°14.547 2°54.783 6.8 32 16.2 101110 86
2009-07-13 06:59:36 51°14.563 2°54.769 6.4 281 16.2 101110 86
2009-07-13 06:59:40 51°14.574 2°54.759 7.3 240 16.2 101120 86
2009-07-13 06:59:44 51°14.585 2°54.749 6 284 16.2 101120 86
2009-07-13 06:59:50 51°14.601 2°54.734 7.3 240 16.2 101120 86
2009-07-13 06:59:55 51°14.614 2°54.721 5.5 282 16.2 101120 86
2009-07-13 07:00:00 51°14.627 2°54.708 5.8 241 16.2 101110 86
2009-07-13 07:00:04 51°14.638 2°54.698 5.4 282 16.2 101110 86
2009-07-13 07:00:10 51°14.654 2°54.682 7.5 240 16.2 101110 86
2009-07-13 07:00:15 51°14.667 2°54.669 5.5 284 16.2 101110 86
2009-07-13 07:00:20 51°14.68 2°54.656 6.5 237 16.1 101120 85
2009-07-13 07:00:25 51°14.694 2°54.642 7.1 279 16.1 101120 85
2009-07-13 07:00:31 51°14.71 2°54.627 5 238 16.2 101120 86
2009-07-13 07:00:35 51°14.721 2°54.616 6.1 280 16.2 101120 86
2009-07-13 07:00:40 51°14.734 2°54.602 5.4 242 16.2 101120 86
2009-07-13 07:00:45 51°14.748 2°54.588 7 278 16.2 101120 86
2009-07-13 07:00:51 51°14.764 2°54.572 6.9 240 16.2 101120 87
2009-07-13 07:00:56 51°14.778 2°54.558 5.9 278 16.2 101120 87
2009-07-13 07:01:00 51°14.789 2°54.548 6.1 31 16.2 101120 87
2009-07-13 07:01:05 51°14.803 2°54.534 7.9 284 16.2 101120 87
2009-07-13 07:01:10 51°14.817 2°54.52 7.7 238 16.2 101120 87
2009-07-13 07:01:16 51°14.833 2°54.504 5.4 285 16.2 101120 87
2009-07-13 07:01:20 51°14.844 2°54.492 6.3 240 16.3 101120 87
2009-07-13 07:01:25 51°14.858 2°54.479 7.2 284 16.3 101120 87
2009-07-13 07:01:29 51°14.869 2°54.468 6.9 239 16.3 101120 87
2009-07-13 07:01:35 51°14.886 2°54.452 7 278 16.3 101120 87
2009-07-13 07:01:40 51°14.899 2°54.439 7.1 33 16.3 101120 87
2009-07-13 07:01:45 51°14.913 2°54.425 7 282 16.3 101120 87
2009-07-13 07:01:51 51°14.929 2°54.409 7 33 16.3 101120 87
2009-07-13 07:01:55 51°14.94 2°54.399 5.7 281 16.3 101120 87
2009-07-13 07:02:00 51°14.954 2°54.386 7 237 16.3 101120 87
2009-07-13 07:02:05 51°14.967 2°54.373 6.3 280 16.3 101120 87
2009-07-13 07:02:10 51°14.981 2°54.36 7.8 239 16.3 101120 86
2009-07-13 07:02:15 51°14.995 2°54.347 8.2 283 16.3 101120 86
2009-07-13 07:02:21 51°15.011 2°54.331 8.1 237 16.3 101120 86
2009-07-13 07:02:26 51°15.025 2°54.318 6.3 283 16.3 101120 86
2009-07-13 07:02:30 51°15.036 2°54.307 7.5 31 16.3 101120 86
2009-07-13 07:02:35 51°15.049 2°54.294 7.8 282 16.3 101120 86
2009-07-13 07:02:40 51°15.062 2°54.28 7.8 239 16.3 101120 86
2009-07-13 07:02:45 51°15.076 2°54.267 7.7 278 16.3 101120 86
2009-07-13 07:02:50 51°15.09 2°54.253 6.1 240 16.3 101120 86
2009-07-13 07:02:56 51°15.106 2°54.237 7.7 278 16.3 101120 86
2009-07-13 07:03:00 51°15.117 2°54.227 6.4 242 16.3 101120 86
2009-07-13 07:03:05 51°15.13 2°54.213 7.8 284 16.3 101120 86
2009-07-13 07:03:10 51°15.143 2°54.198 7.3 242 16.3 101120 86
2009-07-13 07:03:16 51°15.159 2°54.182 7.6 279 16.3 101120 86
2009-07-13 07:03:21 51°15.173 2°54.168 5.8 240 16.3 101120 86
2009-07-13 07:03:25 51°15.183 2°54.158 7.9 280 16.3 101120 86
2009-07-13 07:03:30 51°15.197 2°54.145 7.8 240 16.3 101120 86
2009-07-13 07:03:35 51°15.21 2°54.131 6.7 281 16.3 101120 86
2009-07-13 07:03:40 51°15.224 2°54.118 6.9 238 16.3 101130 87
2009-07-13 07:03:45 51°15.237 2°54.105 8 285 16.3 101130 87
2009-07-13 07:03:50 51°15.251 2°54.092 5.8 31 16.3 101120 86
2009-07-13 07:03:55 51°15.264 2°54.079 8 277 16.3 101120 86
2009-07-13 07:04:00 51°15.278 2°54.066 7.6 239 16.4 101130 86
2009-07-13 07:04:05 51°15.291 2°54.053 7.4 285 16.4 101130 86
2009-07-13 07:04:10 51°15.305 2°54.04 8.2 238 16.4 101120 86
2009-07-13 07:04:15 51°15.318 2°54.027 8.4 283 16.4 101120 86
2009-07-13 07:04:20 51°15.332 2°54.013 6.7 241 16.3 101120 86
2009-07-13 07:04:25 51°15.345 2°54 6.8 284 16.3 101120 86
2009-07-13 07:04:30 51°15.359 2°53.987 7.9 242 16.3 101120 86
2009-07-13 07:04:35 51°15.372 2°53.974 8.2 279 16.3 101120 86
2009-07-13 07:04:40 51°15.386 2°53.961 7.8 239 16.4 101130 86
2009-07-13 07:04:45 51°15.399 2°53.948 7.4 278 16.4 101130 86
2009-07-13 07:04:50 51°15.413 2°53.934 7.8 237 16.4 101130 86
2009-07-13 07:04:56 51°15.429 2°53.918 6.7 282 16.4 101130 86
2009-07-13 07:05:01 51°15.442 2°53.905 8.5 243 16.4 101130 86
2009-07-13 07:05:05 51°15.453 2°53.894 6.8 278 16.4 101130 86
2009-07-13 07:05:10 51°15.466 2°53.881 7.7 245 16.4 101130 86
2009-07-13 07:05:15 51°15.48 2°53.868 7.6 278 16.4 101130 86
2009-07-13 07:05:20 51°15.493 2°53.855 6.1 242 16.4 101130 86
2009-07-13 07:05:25 51°15.507 2°53.841 5.4 285 16.4 101130 86
2009-07-13 07:05:30 51°15.52 2°53.828 7.8 240 16.4 101120 86
2009-07-13 07:05:35 51°15.533 2°53.815 6.1 285 16.4 101120 86
2009-07-13 07:05:40 51°15.547 2°53.802 8.3 241 16.4 101130 86
2009-07-13 07:05:45 51°15.56 2°53.789 6.6 283 16.4 101130 86
2009-07-13 07:05:50 51°15.574 2°53.775 8.2 239 16.4 101130 86
2009-07-13 07:05:56 51°15.59 2°53.759 8.1 277 16.4 101130 86
2009-07-13 07:06:01 51°15.603 2°53.745 6.6 237 16.4 101130 86
2009-07-13 07:06:05 51°15.614 2°53.735 6.9 284 16.4 101130 86
2009-07-13 07:06:10 51°15.628 2°53.721 7.1 241 16.5 101130 86
2009-07-13 07:06:15 51°15.641 2°53.708 6.3 278 16.5 101130 86
2009-07-13 07:06:21 51°15.658 2°53.691 8.1 240 16.5 101130 86
2009-07-13 07:06:25 51°15.669 2°53.68 6.8 279 16.5 101130 86
2009-07-13 07:06:30 51°15.682 2°53.666 7.9 241 16.4 101130 86
2009-07-13 07:06:35 51°15.696 2°53.652 9.7 282 16.4 101130 86
2009-07-13 07:06:40 51°15.71 2°53.638 9.2 241 16.4 101130 86
2009-07-13 07:06:45 51°15.724 2°53.624 9.4 280 16.4 101130 86
2009-07-13 07:06:50 51°15.738 2°53.611 8.1 242 16.4 101130 86
2009-07-13 07:06:55 51°15.752 2°53.597 7.9 283 16.4 101130 86
2009-07-13 07:07:00 51°15.766 2°53.583 6.6 238 16.5 101130 86
2009-07-13 07:07:05 51°15.78 2°53.57 8.2 284 16.5 101130 86
2009-07-13 07:07:10 51°15.794 2°53.557 7 238 16.5 101120 86
2009-07-13 07:07:15 51°15.808 2°53.543 7.5 285 16.5 101120 86
2009-07-13 07:07:20 51°15.822 2°53.529 7.7 240 16.5 101130 86
2009-07-13 07:07:25 51°15.836 2°53.515 7.2 285 16.5 101130 86
2009-07-13 07:07:30 51°15.85 2°53.502 8 240 16.5 101130 86
2009-07-13 07:07:36 51°15.867 2°53.485 7.8 283 16.5 101130 86
2009-07-13 07:07:41 51°15.881 2°53.472 9.3 239 16.5 101130 86
2009-07-13 07:07:45 51°15.893 2°53.461 8.9 283 16.4 101120 85
2009-07-13 07:07:50 51°15.907 2°53.447 10.1 240 16.4 101120 85
2009-07-13 07:07:55 51°15.921 2°53.434 7.9 280 16.4 101130 85
2009-07-13 07:08:00 51°15.935 2°53.42 7.8 239 16.5 101120 86
2009-07-13 07:08:05 51°15.95 2°53.407 9.9 279 16.5 101120 86
2009-07-13 07:08:10 51°15.964 2°53.393 10.3 244 16.5 101120 84
2009-07-13 07:08:16 51°15.981 2°53.377 9.9 278 16.5 101120 84
2009-07-13 07:08:21 51°15.995 2°53.363 10.4 239 16.5 101120 83
2009-07-13 07:08:25 51°16.006 2°53.352 10.7 284 16.5 101120 83
2009-07-13 07:08:30 51°16.02 2°53.337 8.7 240 16.5 101120 83
2009-07-13 07:08:34 51°16.031 2°53.326 10.7 283 16.5 101120 83
2009-07-13 07:08:41 51°16.051 2°53.308 10.4 245 16.5 101120 85
2009-07-13 07:08:45 51°16.062 2°53.297 7.7 280 16.5 101120 85
2009-07-13 07:08:50 51°16.077 2°53.283 7.5 245 16.5 101120 83
2009-07-13 07:08:55 51°16.091 2°53.27 8.7 284 16.5 101120 83
2009-07-13 07:09:00 51°16.106 2°53.258 8.9 244 16.5 101120 83
2009-07-13 07:09:05 51°16.12 2°53.245 7.6 283 16.5 101110 83
2009-07-13 07:09:10 51°16.135 2°53.232 10.2 243 16.5 101130 83
2009-07-13 07:09:15 51°16.149 2°53.219 9.4 279 16.5 101130 83
2009-07-13 07:09:21 51°16.167 2°53.204 10.1 241 16.5 101130 83
2009-07-13 07:09:25 51°16.178 2°53.193 8.1 284 16.5 101130 84
2009-07-13 07:09:30 51°16.193 2°53.181 10.1 243 16.5 101130 84
2009-07-13 07:09:35 51°16.208 2°53.168 8.8 280 16.5 101130 84
2009-07-13 07:09:40 51°16.222 2°53.156 8.4 240 16.6 101130 85
2009-07-13 07:09:45 51°16.237 2°53.143 8.3 285 16.6 101130 85
2009-07-13 07:09:50 51°16.251 2°53.13 7.8 240 16.6 101120 84
2009-07-13 07:09:55 51°16.266 2°53.118 7.9 283 16.6 101120 84
2009-07-13 07:10:01 51°16.284 2°53.102 8.7 241 16.6 101120 83
2009-07-13 07:10:05 51°16.296 2°53.093 9.2 280 16.6 101120 83
2009-07-13 07:10:10 51°16.31 2°53.08 8.1 240 16.6 101120 83
2009-07-13 07:10:16 51°16.328 2°53.066 8 284 16.6 101120 84
2009-07-13 07:10:20 51°16.339 2°53.055 7.7 244 16.7 101120 84
2009-07-13 07:10:25 51°16.355 2°53.045 7.2 285 16.7 101120 84
2009-07-13 07:10:30 51°16.369 2°53.033 9.2 244 16.6 101120 84
2009-07-13 07:10:36 51°16.388 2°53.02 6.8 278 16.6 101120 84
2009-07-13 07:10:41 51°16.403 2°53.009 7.5 249 16.7 101130 83
2009-07-13 07:10:45 51°16.415 2°53 6.6 282 16.7 101130 83
2009-07-13 07:10:50 51°16.43 2°52.99 7.5 242 16.7 101130 80
2009-07-13 07:10:54 51°16.443 2°52.981 8.4 279 16.7 101130 80
2009-07-13 07:11:01 51°16.464 2°52.966 9.3 246 16.7 101130 82
2009-07-13 07:11:05 51°16.476 2°52.957 8.4 280 16.7 101130 82
2009-07-13 07:11:10 51°16.491 2°52.947 9.1 246 16.7 101130 83
2009-07-13 07:11:14 51°16.503 2°52.938 8.1 278 16.7 101130 83
2009-07-13 07:11:20 51°16.521 2°52.925 8.9 246 16.7 101120 84
2009-07-13 07:11:25 51°16.536 2°52.914 8.3 284 16.7 101120 84
2009-07-13 07:11:30 51°16.551 2°52.903 7.6 245 16.7 101120 82
2009-07-13 07:11:35 51°16.566 2°52.893 9.4 282 16.7 101120 82
2009-07-13 07:11:40 51°16.581 2°52.881 9.3 244 16.7 101120 83
2009-07-13 07:11:45 51°16.596 2°52.87 8.6 282 16.7 101120 83
2009-07-13 07:11:50 51°16.611 2°52.86 8.9 243 16.7 101130 84
2009-07-13 07:11:55 51°16.627 2°52.849 7.8 282 16.7 101130 84
2009-07-13 07:12:00 51°16.642 2°52.838 9.3 241 16.7 101130 82
2009-07-13 07:12:05 51°16.657 2°52.828 10 283 16.7 101130 82
2009-07-13 07:12:10 51°16.672 2°52.817 8.4 242 16.7 101140 83
2009-07-13 07:12:16 51°16.691 2°52.805 10.2 279 16.7 101140 83
2009-07-13 07:12:20 51°16.703 2°52.796 9.2 245 16.7 101130 83
2009-07-13 07:12:25 51°16.718 2°52.786 6.4 286 16.7 101130 83
2009-07-13 07:12:30 51°16.734 2°52.776 7.9 243 16.7 101130 83
2009-07-13 07:12:36 51°16.752 2°52.764 8.1 284 16.7 101130 83
2009-07-13 07:12:41 51°16.767 2°52.754 8.1 242 16.7 101130 83
2009-07-13 07:12:45 51°16.779 2°52.746 9.3 282 16.7 101130 83
2009-07-13 07:12:50 51°16.794 2°52.736 8.8 242 16.7 101140 81
2009-07-13 07:12:56 51°16.812 2°52.723 8.4 278 16.7 101140 81
2009-07-13 07:13:01 51°16.827 2°52.713 9 247 16.7 101140 83
2009-07-13 07:13:05 51°16.839 2°52.704 8.6 280 16.7 101140 83
2009-07-13 07:13:10 51°16.854 2°52.694 7.2 246 16.7 101130 83
2009-07-13 07:13:15 51°16.869 2°52.683 8.8 283 16.7 101130 83
2009-07-13 07:13:21 51°16.888 2°52.672 8.9 248 16.7 101140 83
2009-07-13 07:13:25 51°16.9 2°52.664 8.1 281 16.7 101140 83
2009-07-13 07:13:30 51°16.916 2°52.656 7.6 248 16.7 101130 83
2009-07-13 07:13:35 51°16.931 2°52.647 8.9 278 16.7 101130 83
2009-07-13 07:13:40 51°16.947 2°52.639 6.4 250 16.7 101140 83
2009-07-13 07:13:45 51°16.963 2°52.631 6.7 280 16.7 101140 83
2009-07-13 07:13:50 51°16.979 2°52.624 7.4 250 16.8 101140 82
2009-07-13 07:13:55 51°16.995 2°52.617 5.9 279 16.8 101140 82
2009-07-13 07:14:01 51°17.014 2°52.61 8.5 244 16.8 101140 82
2009-07-13 07:14:05 51°17.027 2°52.605 8 278 16.7 101140 83
2009-07-13 07:14:10 51°17.043 2°52.599 7.7 249 16.8 101130 83
2009-07-13 07:14:15 51°17.059 2°52.593 6.4 281 16.8 101130 83
2009-07-13 07:14:21 51°17.078 2°52.587 7.3 247 16.8 101140 84
2009-07-13 07:14:25 51°17.091 2°52.582 7.1 278 16.8 101140 84
2009-07-13 07:14:30 51°17.107 2°52.577 6.7 250 16.8 101150 84
2009-07-13 07:14:35 51°17.123 2°52.572 6.2 279 16.8 101150 84
2009-07-13 07:14:40 51°17.139 2°52.566 8 254 16.8 101130 82
2009-07-13 07:14:45 51°17.155 2°52.562 7.4 285 16.8 101130 82
2009-07-13 07:14:50 51°17.17 2°52.555 6.8 248 16.8 101140 81
2009-07-13 07:14:56 51°17.19 2°52.55 8.2 283 16.8 101140 81
2009-07-13 07:15:00 51°17.202 2°52.546 8.5 251 16.8 101140 83
2009-07-13 07:15:05 51°17.219 2°52.542 6 284 16.8 101140 83
2009-07-13 07:15:10 51°17.235 2°52.537 8.5 252 16.9 101130 84
2009-07-13 07:15:16 51°17.254 2°52.533 8.3 286 16.9 101130 84
2009-07-13 07:15:21 51°17.27 2°52.528 7.8 252 16.9 101140 83
2009-07-13 07:15:25 51°17.283 2°52.525 6.3 281 16.9 101140 83
2009-07-13 07:15:30 51°17.299 2°52.521 6.9 252 16.9 101140 84
2009-07-13 07:15:34 51°17.312 2°52.517 5.8 278 16.9 101140 84
2009-07-13 07:15:41 51°17.335 2°52.512 6.8 250 16.9 101130 83
2009-07-13 07:15:45 51°17.347 2°52.509 9.1 285 16.9 101130 83
2009-07-13 07:15:50 51°17.364 2°52.504 10 257 16.9 101140 84
2009-07-13 07:15:55 51°17.38 2°52.5 6.5 277 16.9 101140 84
2009-07-13 07:16:01 51°17.399 2°52.494 7.9 251 16.9 101140 84
2009-07-13 07:16:05 51°17.412 2°52.491 7.7 284 16.9 101140 83
2009-07-13 07:16:10 51°17.428 2°52.486 8.1 253 17 101130 82
2009-07-13 07:16:15 51°17.444 2°52.482 7.5 279 17 101130 82
2009-07-13 07:16:20 51°17.46 2°52.477 8.7 255 17 101140 83
2009-07-13 07:16:25 51°17.476 2°52.474 8.8 283 17 101140 83
2009-07-13 07:16:30 51°17.492 2°52.469 6.8 252 17 101140 83
2009-07-13 07:16:35 51°17.509 2°52.467 7.9 279 17 101140 83
2009-07-13 07:16:40 51°17.525 2°52.463 7.4 256 17 101130 82
2009-07-13 07:16:45 51°17.541 2°52.459 7.4 286 17 101130 82
2009-07-13 07:16:50 51°17.558 2°52.455 6.5 254 17 101130 82
2009-07-13 07:16:56 51°17.577 2°52.451 7.4 279 17 101130 82
2009-07-13 07:17:01 51°17.593 2°52.448 7.6 254 17 101140 84
2009-07-13 07:17:05 51°17.606 2°52.445 7.2 278 17 101140 84
2009-07-13 07:17:10 51°17.623 2°52.441 5 249 17 101140 83
2009-07-13 07:17:15 51°17.639 2°52.438 6.5 281 17 101140 83
2009-07-13 07:17:21 51°17.658 2°52.434 6.4 247 17 101140 82
2009-07-13 07:17:25 51°17.671 2°52.432 6.6 279 17 101140 82
2009-07-13 07:17:30 51°17.688 2°52.428 6.3 249 17 101150 82
2009-07-13 07:17:35 51°17.704 2°52.424 8.3 279 17 101150 82
2009-07-13 07:17:40 51°17.72 2°52.421 6.6 252 17 101140 84
2009-07-13 07:17:45 51°17.736 2°52.418 7.4 283 17 101140 84
2009-07-13 07:17:50 51°17.753 2°52.414 6 253 17 101140 83
2009-07-13 07:17:55 51°17.769 2°52.411 7.1 278 17 101140 83
2009-07-13 07:18:01 51°17.789 2°52.406 7.6 253 17 101140 84
2009-07-13 07:18:05 51°17.802 2°52.404 8.2 282 17 101140 84
2009-07-13 07:18:10 51°17.818 2°52.4 7.1 252 17 101130 84
2009-07-13 07:18:14 51°17.831 2°52.397 6.1 285 17 101130 84
2009-07-13 07:18:20 51°17.851 2°52.393 8.1 253 17 101140 83
2009-07-13 07:18:25 51°17.867 2°52.39 6.3 284 17 101140 83
2009-07-13 07:18:30 51°17.884 2°52.386 6.6 258 17.1 101140 83
2009-07-13 07:18:36 51°17.903 2°52.383 7.1 283 17.1 101140 83
2009-07-13 07:18:40 51°17.916 2°52.382 8.1 256 17 101140 83
2009-07-13 07:18:45 51°17.932 2°52.379 7.5 285 17 101140 83
2009-07-13 07:18:50 51°17.949 2°52.377 6.2 255 17 101140 84
2009-07-13 07:18:56 51°17.968 2°52.375 7.1 284 17 101140 84
2009-07-13 07:19:01 51°17.985 2°52.374 7.8 251 17 101140 84
2009-07-13 07:19:05 51°17.998 2°52.373 6.5 280 17.1 101130 82
2009-07-13 07:19:10 51°18.014 2°52.374 9.4 257 17.1 101150 83
2009-07-13 07:19:15 51°18.031 2°52.371 5.8 286 17.1 101150 83
2009-07-13 07:19:21 51°18.05 2°52.371 6.3 253 17.1 101140 83
2009-07-13 07:19:25 51°18.064 2°52.369 6 283 17.1 101140 83
2009-07-13 07:19:30 51°18.08 2°52.371 9.5 255 17.1 101130 83
2009-07-13 07:19:36 51°18.099 2°52.369 6.7 279 17.1 101130 83
2009-07-13 07:19:40 51°18.113 2°52.369 8.3 255 17 101140 82
2009-07-13 07:19:45 51°18.129 2°52.367 6.2 281 17 101140 82
2009-07-13 07:19:50 51°18.145 2°52.367 7.7 254 17 101150 81
2009-07-13 07:19:56 51°18.165 2°52.365 8.3 283 17 101150 81
2009-07-13 07:20:01 51°18.181 2°52.364 7.4 254 17 101130 81
2009-07-13 07:20:05 51°18.195 2°52.364 8.1 282 17 101130 81
2009-07-13 07:20:10 51°18.211 2°52.362 8.4 253 17 101140 82
2009-07-13 07:20:16 51°18.231 2°52.362 8 281 17 101140 82
2009-07-13 07:20:21 51°18.247 2°52.361 6.2 256 17 101140 82
2009-07-13 07:20:25 51°18.26 2°52.361 6.3 284 17 101140 82
2009-07-13 07:20:30 51°18.276 2°52.36 5.8 251 17 101140 83
2009-07-13 07:20:35 51°18.293 2°52.359 7.2 283 17 101140 83
2009-07-13 07:20:41 51°18.312 2°52.358 7.1 258 17 101140 83
2009-07-13 07:20:45 51°18.325 2°52.358 7.8 283 17 101130 83
2009-07-13 07:20:49 51°18.338 2°52.356 6.1 256 17 101150 83
2009-07-13 07:20:55 51°18.358 2°52.356 5.2 277 17 101150 83
2009-07-13 07:21:00 51°18.374 2°52.355 6.8 253 17 101140 83
2009-07-13 07:21:05 51°18.391 2°52.354 6.9 278 17 101140 83
2009-07-13 07:21:10 51°18.407 2°52.355 6.8 250 17 101140 83
2009-07-13 07:21:15 51°18.424 2°52.353 8.1 277 17 101140 83
2009-07-13 07:21:20 51°18.44 2°52.354 7 253 17 101140 83
2009-07-13 07:21:25 51°18.456 2°52.354 6.6 285 17 101140 83
2009-07-13 07:21:30 51°18.473 2°52.355 6.9 257 17.1 101140 83
2009-07-13 07:21:36 51°18.492 2°52.36 7.3 283 17.1 101140 83
2009-07-13 07:21:40 51°18.505 2°52.362 4.5 262 17 101140 83
2009-07-13 07:21:45 51°18.521 2°52.368 5.9 285 17 101140 83
2009-07-13 07:21:50 51°18.537 2°52.374 6.8 259 17.1 101150 83
2009-07-13 07:21:56 51°18.556 2°52.38 6.1 279 17.1 101150 83
2009-07-13 07:22:01 51°18.571 2°52.388 5.7 261 17 101140 83
2009-07-13 07:22:05 51°18.584 2°52.392 2.5 280 17 101140 83
2009-07-13 07:22:10 51°18.6 2°52.4 3.7 262 17.1 101150 83
2009-07-13 07:22:14 51°18.612 2°52.405 3.3 283 17.1 101150 83
2009-07-13 07:22:21 51°18.634 2°52.416 3.8 267 17.1 101150 83
2009-07-13 07:22:25 51°18.647 2°52.422 3.6 285 17.1 101150 83
2009-07-13 07:22:30 51°18.662 2°52.429 3.1 263 17 101150 82
2009-07-13 07:22:34 51°18.675 2°52.436 3.9 284 17 101150 82
2009-07-13 07:22:41 51°18.697 2°52.447 3.8 264 17 101140 82
2009-07-13 07:22:45 51°18.709 2°52.453 3.3 281 17 101140 82
2009-07-13 07:22:50 51°18.725 2°52.461 2.8 264 17 101150 82
2009-07-13 07:22:56 51°18.743 2°52.472 4.3 280 17 101150 82
2009-07-13 07:23:01 51°18.759 2°52.479 5 258 17 101150 82
2009-07-13 07:23:05 51°18.771 2°52.486 4.6 284 17 101140 83
2009-07-13 07:23:10 51°18.787 2°52.493 5.1 261 17 101150 83
2009-07-13 07:23:15 51°18.803 2°52.502 4 281 17 101150 83
2009-07-13 07:23:20 51°18.819 2°52.51 4.2 260 17 101150 84
2009-07-13 07:23:25 51°18.834 2°52.518 5.4 285 17 101150 84
2009-07-13 07:23:30 51°18.85 2°52.527 4.9 259 17 101150 84
2009-07-13 07:23:36 51°18.869 2°52.537 4.4 283 17 101150 84
2009-07-13 07:23:41 51°18.885 2°52.546 5.3 264 17 101150 83
2009-07-13 07:23:45 51°18.897 2°52.552 5.5 279 17 101150 83
2009-07-13 07:23:50 51°18.913 2°52.56 3.7 262 17 101150 83
2009-07-13 07:23:56 51°18.932 2°52.57 5.6 280 17 101150 83
2009-07-13 07:24:01 51°18.947 2°52.578 3.7 262 17 101150 83
2009-07-13 07:24:05 51°18.96 2°52.585 4 282 17 101150 83
2009-07-13 07:24:10 51°18.976 2°52.592 3.1 264 17 101150 82
2009-07-13 07:24:14 51°18.988 2°52.6 3.8 281 17 101150 82
2009-07-13 07:24:21 51°19.011 2°52.611 4 264 17 101140 82
2009-07-13 07:24:25 51°19.023 2°52.617 5.1 279 17 101140 82
2009-07-13 07:24:30 51°19.039 2°52.625 3.7 264 16.9 101150 82
2009-07-13 07:24:35 51°19.055 2°52.633 4 282 16.9 101150 82
2009-07-13 07:24:41 51°19.073 2°52.643 3.7 269 16.9 101150 81
2009-07-13 07:24:45 51°19.086 2°52.648 3.5 283 16.9 101150 81
2009-07-13 07:24:50 51°19.102 2°52.657 4 270 16.9 101160 82
2009-07-13 07:24:55 51°19.117 2°52.665 3.6 280 16.9 101160 82
2009-07-13 07:25:01 51°19.136 2°52.673 4.7 270 16.9 101160 82
2009-07-13 07:25:05 51°19.149 2°52.68 3.6 283 16.9 101150 82
2009-07-13 07:25:09 51°19.161 2°52.686 3.7 265 16.8 101150 82
2009-07-13 07:25:15 51°19.18 2°52.696 3.9 285 16.8 101150 82
2009-07-13 07:25:21 51°19.199 2°52.704 4.1 264 16.8 101160 82
2009-07-13 07:25:25 51°19.212 2°52.712 2.9 286 16.8 101160 82
2009-07-13 07:25:29 51°19.224 2°52.717 3.1 262 16.8 101160 83
2009-07-13 07:25:35 51°19.243 2°52.725 2.8 277 16.8 101160 83
2009-07-13 07:25:40 51°19.259 2°52.734 3.4 264 16.8 101150 83
2009-07-13 07:25:45 51°19.275 2°52.74 2.5 280 16.8 101150 83
2009-07-13 07:25:50 51°19.291 2°52.749 3.1 262 16.8 101150 83
2009-07-13 07:25:55 51°19.307 2°52.755 4 282 16.8 101150 83
2009-07-13 07:26:00 51°19.322 2°52.763 6 254 16.8 101160 83
2009-07-13 07:26:05 51°19.338 2°52.77 5.1 279 16.8 101160 83
2009-07-13 07:26:10 51°19.354 2°52.778 4.2 264 16.8 101150 83
2009-07-13 07:26:16 51°19.373 2°52.786 3.3 278 16.8 101150 83
2009-07-13 07:26:20 51°19.386 2°52.793 4.2 264 16.8 101150 83
2009-07-13 07:26:25 51°19.401 2°52.8 3.6 281 16.8 101150 83
2009-07-13 07:26:30 51°19.417 2°52.807 4.2 262 16.9 101160 84
2009-07-13 07:26:36 51°19.436 2°52.816 3.9 279 16.9 101160 84
2009-07-13 07:26:41 51°19.452 2°52.824 5.5 260 16.9 101150 84
2009-07-13 07:26:45 51°19.465 2°52.828 3.4 281 16.9 101150 84
2009-07-13 07:26:50 51°19.48 2°52.836 3.4 264 16.8 101150 83
2009-07-13 07:26:56 51°19.499 2°52.844 4.8 277 16.8 101150 83
2009-07-13 07:27:01 51°19.515 2°52.851 4.6 261 16.8 101160 83
2009-07-13 07:27:05 51°19.527 2°52.857 5.5 279 16.8 101160 83
2009-07-13 07:27:10 51°19.543 2°52.863 4.2 266 16.8 101150 84
2009-07-13 07:27:15 51°19.559 2°52.872 4.1 279 16.8 101150 84
2009-07-13 07:27:21 51°19.578 2°52.88 3.8 267 16.9 101140 84
2009-07-13 07:27:25 51°19.59 2°52.886 3.9 283 16.9 101140 84
2009-07-13 07:27:30 51°19.605 2°52.892 4.2 269 16.8 101150 83
2009-07-13 07:27:36 51°19.624 2°52.901 4.7 278 16.8 101150 83
2009-07-13 07:27:40 51°19.637 2°52.906 3.5 262 16.8 101140 83
2009-07-13 07:27:45 51°19.653 2°52.914 4.1 285 16.8 101140 83
2009-07-13 07:27:50 51°19.669 2°52.921 5 262 16.8 101150 83
2009-07-13 07:27:56 51°19.688 2°52.929 5.9 284 16.8 101150 83
2009-07-13 07:28:01 51°19.704 2°52.935 5.2 260 16.8 101150 84
2009-07-13 07:28:05 51°19.716 2°52.942 4.6 285 16.8 101150 84
2009-07-13 07:28:10 51°19.732 2°52.947 3.9 265 16.8 101160 84
2009-07-13 07:28:16 51°19.751 2°52.957 4.9 278 16.8 101160 84
2009-07-13 07:28:21 51°19.767 2°52.963 5.7 265 16.8 101150 84
2009-07-13 07:28:25 51°19.779 2°52.969 4.5 -999 16.8 101150 84
2009-07-13 07:28:30 51°19.795 2°52.977 5.4 265 16.8 101150 84
2009-07-13 07:28:35 51°19.811 2°52.982 4.3 283 16.8 101150 84
2009-07-13 07:28:41 51°19.829 2°52.993 4.6 266 16.8 101150 83
2009-07-13 07:28:45 51°19.841 2°52.998 5.1 280 16.8 101150 83
2009-07-13 07:28:49 51°19.854 2°53.003 4.2 37 16.8 101160 83
2009-07-13 07:28:55 51°19.872 2°53.013 4.3 285 16.8 101160 83
2009-07-13 07:29:01 51°19.891 2°53.021 3.5 268 16.8 101150 83
2009-07-13 07:29:05 51°19.903 2°53.026 4.5 279 16.8 101150 83
2009-07-13 07:29:10 51°19.919 2°53.035 4.5 36 16.8 101150 83
2009-07-13 07:29:15 51°19.934 2°53.041 4.7 82 16.8 101150 83
2009-07-13 07:29:20 51°19.95 2°53.05 4.4 269 16.7 101150 83
2009-07-13 07:29:25 51°19.965 2°53.057 3.8 291 16.7 101150 83
2009-07-13 07:29:30 51°19.981 2°53.065 3.1 265 16.7 101150 83
2009-07-13 07:29:35 51°19.997 2°53.073 3.7 279 16.7 101150 83
2009-07-13 07:29:41 51°20.015 2°53.082 4 268 16.7 101150 83
2009-07-13 07:29:45 51°20.028 2°53.089 4.4 278 16.7 101150 83
2009-07-13 07:29:50 51°20.044 2°53.097 3.1 263 16.7 101150 84
2009-07-13 07:29:55 51°20.059 2°53.105 4 284 16.7 101150 84
2009-07-13 07:30:00 51°20.075 2°53.114 5 263 16.7 101140 84
2009-07-13 07:30:05 51°20.091 2°53.12 3.2 283 16.7 101140 84
2009-07-13 07:30:10 51°20.106 2°53.13 5.1 262 16.7 101140 84
2009-07-13 07:30:15 51°20.121 2°53.138 3.8 279 16.7 101140 84
2009-07-13 07:30:20 51°20.137 2°53.145 3.7 263 16.8 101150 85
2009-07-13 07:30:25 51°20.153 2°53.154 3.9 279 16.8 101150 85
2009-07-13 07:30:30 51°20.169 2°53.16 3.1 262 16.7 101150 85
2009-07-13 07:30:36 51°20.187 2°53.172 4.4 277 16.7 101150 85
2009-07-13 07:30:41 51°20.203 2°53.177 4.1 269 16.7 101150 84
2009-07-13 07:30:45 51°20.215 2°53.186 4.3 283 16.7 101150 84
2009-07-13 07:30:50 51°20.231 2°53.192 3.8 268 16.7 101150 84
2009-07-13 07:30:55 51°20.247 2°53.202 5.3 284 16.7 101150 84
2009-07-13 07:31:01 51°20.265 2°53.21 4.6 44 16.7 101140 84
2009-07-13 07:31:05 51°20.278 2°53.218 4.7 280 16.7 101140 84
2009-07-13 07:31:10 51°20.293 2°53.224 4.1 270 16.7 101140 84
2009-07-13 07:31:15 51°20.309 2°53.233 3 286 16.7 101140 84
2009-07-13 07:31:20 51°20.324 2°53.241 3.3 268 16.7 101150 84
2009-07-13 07:31:25 51°20.34 2°53.248 4.1 84 16.7 101150 84
2009-07-13 07:31:30 51°20.355 2°53.258 3.8 261 16.7 101150 84
2009-07-13 07:31:35 51°20.371 2°53.265 3 285 16.7 101150 84
2009-07-13 07:31:41 51°20.389 2°53.276 3.6 267 16.7 101150 84
2009-07-13 07:31:45 51°20.402 2°53.282 2.3 282 16.7 101150 84
2009-07-13 07:31:50 51°20.417 2°53.291 4.1 253 16.7 101150 84
2009-07-13 07:31:56 51°20.436 2°53.3 4.2 277 16.7 101150 84
2009-07-13 07:32:01 51°20.452 2°53.308 5.2 261 16.7 101150 84
2009-07-13 07:32:05 51°20.464 2°53.314 4.1 285 16.7 101150 85
2009-07-13 07:32:10 51°20.48 2°53.324 3.8 261 16.7 101150 85
2009-07-13 07:32:15 51°20.495 2°53.33 2.9 284 16.7 101150 85
2009-07-13 07:32:21 51°20.514 2°53.341 4 260 16.7 101150 85
2009-07-13 07:32:25 51°20.526 2°53.347 3 278 16.7 101140 85
2009-07-13 07:32:30 51°20.541 2°53.357 2.9 264 16.7 101150 85
2009-07-13 07:32:35 51°20.557 2°53.363 3.6 279 16.7 101150 85
2009-07-13 07:32:41 51°20.575 2°53.375 3.1 262 16.8 101160 86
2009-07-13 07:32:45 51°20.587 2°53.38 5 277 16.8 101160 86
2009-07-13 07:32:49 51°20.6 2°53.386 4.8 261 16.8 101150 85
2009-07-13 07:32:55 51°20.618 2°53.396 3.1 284 16.8 101150 85
2009-07-13 07:33:01 51°20.637 2°53.406 3.2 262 16.8 101150 85
2009-07-13 07:33:05 51°20.649 2°53.414 3.7 277 16.8 101150 85
2009-07-13 07:33:10 51°20.664 2°53.421 6.4 255 16.8 101150 85
2009-07-13 07:33:16 51°20.683 2°53.433 4.8 282 16.8 101150 85
2009-07-13 07:33:21 51°20.698 2°53.441 4.7 261 16.8 101160 85
2009-07-13 07:33:25 51°20.71 2°53.448 3.9 285 16.8 101160 85
2009-07-13 07:33:30 51°20.725 2°53.456 4.2 266 16.8 101150 85
2009-07-13 07:33:35 51°20.741 2°53.464 3.6 278 16.8 101150 85
2009-07-13 07:33:40 51°20.756 2°53.473 3 264 16.8 101140 85
2009-07-13 07:33:45 51°20.772 2°53.48 2.8 280 16.8 101140 85
2009-07-13 07:33:50 51°20.787 2°53.489 3.7 263 16.8 101150 85
2009-07-13 07:33:55 51°20.802 2°53.496 3 282 16.8 101150 85
2009-07-13 07:34:01 51°20.82 2°53.508 3.2 269 16.7 101150 84
2009-07-13 07:34:05 51°20.833 2°53.512 3.1 281 16.7 101150 84
2009-07-13 07:34:10 51°20.848 2°53.522 3.9 270 16.7 101160 84
2009-07-13 07:34:16 51°20.867 2°53.53 3.6 281 16.7 101160 84
2009-07-13 07:34:20 51°20.879 2°53.537 3.7 260 16.7 101160 84
2009-07-13 07:34:25 51°20.894 2°53.545 3.1 279 16.7 101160 84
2009-07-13 07:34:30 51°20.91 2°53.552 4.1 253 16.7 101160 84
2009-07-13 07:34:36 51°20.928 2°53.563 4.1 281 16.7 101160 84
2009-07-13 07:34:41 51°20.944 2°53.57 3.7 268 16.7 101160 84
2009-07-13 07:34:45 51°20.956 2°53.576 2.9 279 16.7 101160 84
2009-07-13 07:34:50 51°20.971 2°53.586 3.3 262 16.7 101150 71
2009-07-13 07:34:55 51°20.987 2°53.592 2.7 278 16.7 101150 71
2009-07-13 07:35:01 51°21.005 2°53.602 3.4 267 16.7 101160 83
2009-07-13 07:35:05 51°21.018 2°53.608 3 279 16.7 101160 83
2009-07-13 07:35:09 51°21.029 2°53.616 3.2 264 16.7 101160 82
2009-07-13 07:35:15 51°21.048 2°53.624 2.4 278 16.7 101160 82
2009-07-13 07:35:21 51°21.066 2°53.635 2.9 260 16.7 101150 83
2009-07-13 07:35:25 51°21.078 2°53.641 5.4 283 16.7 101150 83
2009-07-13 07:35:29 51°21.091 2°53.646 2.7 261 16.8 101150 82
2009-07-13 07:35:36 51°21.112 2°53.66 4.1 285 16.8 101150 82
2009-07-13 07:35:40 51°21.125 2°53.664 4.5 262 16.8 101150 83
2009-07-13 07:35:45 51°21.14 2°53.672 3.4 284 16.8 101150 83
2009-07-13 07:35:50 51°21.155 2°53.681 4.4 262 16.8 101140 82
2009-07-13 07:35:55 51°21.171 2°53.687 3.3 280 16.8 101140 82
2009-07-13 07:36:00 51°21.186 2°53.696 3.9 263 16.8 101150 83
2009-07-13 07:36:05 51°21.201 2°53.703 3.1 280 16.8 101150 83
2009-07-13 07:36:10 51°21.216 2°53.71 3.9 270 16.8 101160 83
2009-07-13 07:36:15 51°21.231 2°53.721 3.9 280 16.8 101160 83
2009-07-13 07:36:21 51°21.25 2°53.727 4.2 267 16.8 101150 84
2009-07-13 07:36:25 51°21.262 2°53.735 3.8 277 16.8 101150 84
2009-07-13 07:36:30 51°21.277 2°53.741 4.4 268 16.8 101140 84
2009-07-13 07:36:35 51°21.293 2°53.749 4.1 276 16.8 101140 84
2009-07-13 07:36:40 51°21.308 2°53.757 2.8 265 16.8 101140 83
2009-07-13 07:36:45 51°21.323 2°53.766 4 279 16.8 101140 83
2009-07-13 07:36:50 51°21.339 2°53.772 5.4 258 16.8 101150 83
2009-07-13 07:36:56 51°21.357 2°53.783 4.6 279 16.8 101150 83
2009-07-13 07:37:01 51°21.372 2°53.79 4.1 263 16.8 101150 82
2009-07-13 07:37:05 51°21.385 2°53.796 4.1 277 16.8 101150 82
2009-07-13 07:37:10 51°21.4 2°53.804 4.2 266 16.8 101140 84
2009-07-13 07:37:15 51°21.416 2°53.811 4.3 284 16.8 101140 84
2009-07-13 07:37:21 51°21.434 2°53.821 3.5 268 16.8 101140 84
2009-07-13 07:37:25 51°21.446 2°53.828 4.2 285 16.8 101140 84
2009-07-13 07:37:30 51°21.462 2°53.834 3.3 266 16.8 101150 84
2009-07-13 07:37:35 51°21.477 2°53.843 5 280 16.8 101150 84
2009-07-13 07:37:41 51°21.496 2°53.851 3.1 260 16.8 101150 83
2009-07-13 07:37:45 51°21.508 2°53.859 4.7 280 16.8 101150 83
2009-07-13 07:37:49 51°21.52 2°53.864 3.9 261 16.8 101150 83
2009-07-13 07:37:56 51°21.542 2°53.876 2.8 283 16.8 101150 83
2009-07-13 07:38:00 51°21.554 2°53.882 3 263 16.8 101140 83
2009-07-13 07:38:05 51°21.569 2°53.891 2.7 284 16.8 101140 83
2009-07-13 07:38:10 51°21.584 2°53.9 3.4 262 16.8 101140 83
2009-07-13 07:38:15 51°21.6 2°53.909 4.7 280 16.8 101140 83
2009-07-13 07:38:21 51°21.617 2°53.922 4 262 16.7 101150 84
2009-07-13 07:38:25 51°21.63 2°53.928 2.9 278 16.7 101150 84
2009-07-13 07:38:30 51°21.644 2°53.94 2.9 262 16.8 101140 83
2009-07-13 07:38:35 51°21.659 2°53.948 4.1 284 16.8 101140 83
2009-07-13 07:38:41 51°21.677 2°53.962 3 254 16.8 101140 84
2009-07-13 07:38:45 51°21.689 2°53.969 3.9 283 16.8 101140 84
2009-07-13 07:38:50 51°21.704 2°53.98 2.2 262 16.8 101140 85
2009-07-13 07:38:55 51°21.719 2°53.991 4.5 284 16.8 101140 85
2009-07-13 07:39:00 51°21.734 2°54.002 3.9 260 16.8 101140 84
2009-07-13 07:39:05 51°21.748 2°54.012 5.1 284 16.8 101140 84
2009-07-13 07:39:10 51°21.763 2°54.024 3.2 262 16.8 101140 85
2009-07-13 07:39:16 51°21.781 2°54.037 2.8 280 16.8 101140 85
2009-07-13 07:39:21 51°21.795 2°54.048 3.5 264 16.8 101140 85
2009-07-13 07:39:25 51°21.807 2°54.056 3.1 280 16.8 101140 85
2009-07-13 07:39:30 51°21.822 2°54.068 3.7 261 16.9 101140 85
2009-07-13 07:39:36 51°21.84 2°54.081 3.5 282 16.9 101140 85
2009-07-13 07:39:41 51°21.854 2°54.092 2.3 267 16.8 101140 84
2009-07-13 07:39:45 51°21.865 2°54.102 3 284 16.8 101140 84
2009-07-13 07:39:50 51°21.881 2°54.111 2.2 266 16.9 101140 85
2009-07-13 07:39:56 51°21.898 2°54.125 3 279 16.9 101140 85
2009-07-13 07:40:00 51°21.91 2°54.133 2.7 266 16.9 101130 84
2009-07-13 07:40:05 51°21.924 2°54.145 2.8 278 16.9 101130 84
2009-07-13 07:40:10 51°21.939 2°54.155 2.9 266 16.9 101140 83
2009-07-13 07:40:16 51°21.957 2°54.169 2.5 278 16.9 101140 83
2009-07-13 07:40:21 51°21.971 2°54.179 2.9 264 16.9 101140 84
2009-07-13 07:40:25 51°21.983 2°54.188 3.6 288 16.9 101140 84
2009-07-13 07:40:30 51°21.998 2°54.198 3.7 261 16.9 101140 84
2009-07-13 07:40:36 51°22.015 2°54.213 3.2 284 16.9 101140 84
2009-07-13 07:40:41 51°22.03 2°54.222 3.2 27 16.9 101140 84
2009-07-13 07:40:45 51°22.041 2°54.232 4.2 79 16.9 101140 84
2009-07-13 07:40:50 51°22.056 2°54.243 4.2 32 16.9 101130 85
2009-07-13 07:40:56 51°22.074 2°54.257 3.2 279 16.9 101130 85
2009-07-13 07:41:01 51°22.088 2°54.268 2.4 266 16.9 101130 85
2009-07-13 07:41:05 51°22.099 2°54.277 3.8 285 16.9 101130 85
2009-07-13 07:41:10 51°22.114 2°54.288 2.3 259 16.9 101140 85
2009-07-13 07:41:15 51°22.128 2°54.3 2.9 279 16.9 101140 85
2009-07-13 07:41:21 51°22.146 2°54.313 2.3 263 16.9 101140 84
2009-07-13 07:41:25 51°22.158 2°54.324 3.2 -999 16.9 101140 84
2009-07-13 07:41:29 51°22.169 2°54.333 2.7 266 16.9 101140 84
2009-07-13 07:41:35 51°22.186 2°54.348 2.8 285 16.9 101140 84
2009-07-13 07:41:41 51°22.204 2°54.361 3.5 263 16.9 101140 85
2009-07-13 07:41:45 51°22.215 2°54.372 2.1 282 16.9 101140 85
2009-07-13 07:41:50 51°22.229 2°54.385 3.2 270 16.9 101140 85
2009-07-13 07:41:55 51°22.243 2°54.397 3 280 16.9 101140 85
2009-07-13 07:42:00 51°22.257 2°54.411 2.7 269 16.9 101130 84
2009-07-13 07:42:05 51°22.271 2°54.423 2.9 75 16.9 101130 84
2009-07-13 07:42:10 51°22.285 2°54.436 3.4 35 16.9 101140 85
2009-07-13 07:42:16 51°22.301 2°54.453 2 75 16.9 101140 85
2009-07-13 07:42:21 51°22.315 2°54.466 2.6 39 17 101130 85
2009-07-13 07:42:25 51°22.326 2°54.477 1.9 81 17 101130 85
2009-07-13 07:42:30 51°22.339 2°54.492 1.7 15 17 101140 85
2009-07-13 07:42:36 51°22.356 2°54.507 1.6 79 17 101140 85
2009-07-13 07:42:41 51°22.369 2°54.523 2.4 266 17 101140 85
2009-07-13 07:42:45 51°22.38 2°54.533 1.7 282 17 101140 85
2009-07-13 07:42:50 51°22.393 2°54.548 1.6 41 17 101140 85
2009-07-13 07:42:55 51°22.406 2°54.563 1.9 9 17 101140 85
2009-07-13 07:43:01 51°22.422 2°54.58 1.9 33 17 101140 85
2009-07-13 07:43:05 51°22.432 2°54.593 1.9 79 17 101140 85
2009-07-13 07:43:10 51°22.445 2°54.608 2 35 17 101150 85
2009-07-13 07:43:16 51°22.461 2°54.626 2.4 81 17 101150 85
2009-07-13 07:43:21 51°22.474 2°54.641 2.1 26 17 101140 85
2009-07-13 07:43:25 51°22.484 2°54.654 2.7 284 17 101140 85
2009-07-13 07:43:30 51°22.498 2°54.668 2.1 266 17 101140 85
2009-07-13 07:43:35 51°22.511 2°54.683 2.3 287 17 101140 85
2009-07-13 07:43:41 51°22.527 2°54.7 3 42 17 101140 85
2009-07-13 07:43:45 51°22.538 2°54.711 3.1 83 17 101140 85
2009-07-13 07:43:50 51°22.551 2°54.726 3.6 270 17 101140 85
2009-07-13 07:43:55 51°22.565 2°54.74 3.3 81 17 101140 85
2009-07-13 07:44:00 51°22.579 2°54.754 3.2 270 17 101140 85
2009-07-13 07:44:05 51°22.593 2°54.768 3 278 17 101140 85
2009-07-13 07:44:10 51°22.606 2°54.782 2.3 268 17 101150 85
2009-07-13 07:44:16 51°22.623 2°54.798 3.2 284 17 101150 85
2009-07-13 07:44:20 51°22.634 2°54.809 2.4 273 17 101150 85
2009-07-13 07:44:25 51°22.647 2°54.823 3.2 280 17 101150 85
2009-07-13 07:44:30 51°22.661 2°54.836 2 42 17 101140 85
2009-07-13 07:44:36 51°22.677 2°54.854 2.8 284 17 101140 85
2009-07-13 07:44:41 51°22.692 2°54.865 1.7 263 16.9 101140 84
2009-07-13 07:44:45 51°22.702 2°54.878 2.2 285 16.9 101140 84
2009-07-13 07:44:50 51°22.716 2°54.889 3 45 17 101150 84
2009-07-13 07:44:55 51°22.729 2°54.903 3 78 17 101150 84
2009-07-13 07:45:01 51°22.746 2°54.92 3.1 329 17 101140 85
2009-07-13 07:45:05 51°22.757 2°54.93 2.7 284 17 101140 85
2009-07-13 07:45:10 51°22.771 2°54.944 2.7 269 17 101140 85
2009-07-13 07:45:15 51°22.785 2°54.957 2.6 281 17 101140 85
2009-07-13 07:45:21 51°22.801 2°54.974 1.8 265 17 101140 84
2009-07-13 07:45:25 51°22.812 2°54.985 2.4 283 17 101140 84
2009-07-13 07:45:29 51°22.823 2°54.996 2.5 268 16.9 101140 84
2009-07-13 07:45:35 51°22.84 2°55.011 3 76 16.9 101140 84
2009-07-13 07:45:41 51°22.857 2°55.028 3.1 267 16.9 101150 84
2009-07-13 07:45:45 51°22.868 2°55.038 2.6 279 16.9 101150 84
2009-07-13 07:45:50 51°22.882 2°55.052 2.7 34 17 101140 84
2009-07-13 07:45:56 51°22.899 2°55.068 3.3 286 17 101140 84
2009-07-13 07:46:01 51°22.913 2°55.08 2.4 44 16.9 101150 84
2009-07-13 07:46:05 51°22.924 2°55.092 2 76 16.9 101150 84
2009-07-13 07:46:10 51°22.938 2°55.105 2.2 258 16.9 101150 84
2009-07-13 07:46:15 51°22.952 2°55.119 1.7 277 16.9 101150 84
2009-07-13 07:46:20 51°22.967 2°55.131 3.9 256 16.9 101150 84
2009-07-13 07:46:25 51°22.98 2°55.146 2.7 284 16.9 101150 84
2009-07-13 07:46:31 51°22.997 2°55.161 3.2 270 16.9 101140 84
2009-07-13 07:46:36 51°23.011 2°55.175 2.5 285 16.9 101140 84
2009-07-13 07:46:40 51°23.022 2°55.185 2 269 16.9 101140 84
2009-07-13 07:46:45 51°23.036 2°55.2 2.3 278 16.9 101140 84
2009-07-13 07:46:50 51°23.051 2°55.211 3 270 16.9 101140 84
2009-07-13 07:46:54 51°23.061 2°55.223 2.3 287 16.9 101140 84
2009-07-13 07:47:01 51°23.081 2°55.242 3.6 260 17 101140 84
2009-07-13 07:47:05 51°23.092 2°55.252 2.6 279 17 101140 84
2009-07-13 07:47:10 51°23.105 2°55.268 2.5 256 17 101150 84
2009-07-13 07:47:16 51°23.123 2°55.282 3.4 283 17 101150 84
2009-07-13 07:47:21 51°23.136 2°55.298 3.1 31 17 101150 85
2009-07-13 07:47:25 51°23.147 2°55.309 2.6 -999 17 101150 85
2009-07-13 07:47:30 51°23.161 2°55.322 2.7 269 17 101150 85
2009-07-13 07:47:35 51°23.175 2°55.336 1.9 285 17 101150 85
2009-07-13 07:47:41 51°23.191 2°55.353 2.1 263 17 101140 85
2009-07-13 07:47:45 51°23.203 2°55.364 1.8 278 17 101140 85
2009-07-13 07:47:50 51°23.216 2°55.379 2.9 262 17 101140 82
2009-07-13 07:47:56 51°23.233 2°55.395 1.9 286 17 101140 82
2009-07-13 07:48:00 51°23.244 2°55.407 3.8 260 17 101140 83
2009-07-13 07:48:05 51°23.258 2°55.42 2.1 279 17 101140 83
2009-07-13 07:48:10 51°23.271 2°55.436 2.5 261 17.1 101150 84
2009-07-13 07:48:16 51°23.289 2°55.45 2.7 280 17.1 101150 84
2009-07-13 07:48:21 51°23.301 2°55.467 2.7 261 17.1 101150 83
2009-07-13 07:48:25 51°23.313 2°55.475 2.4 278 17.1 101150 83
2009-07-13 07:48:30 51°23.327 2°55.489 2 263 17.1 101150 83
2009-07-13 07:48:36 51°23.344 2°55.505 3.7 284 17.1 101150 83
2009-07-13 07:48:41 51°23.357 2°55.52 2.4 44 17.1 101140 83
2009-07-13 07:48:45 51°23.369 2°55.53 2.4 285 17.1 101140 83
2009-07-13 07:48:50 51°23.383 2°55.544 1.7 269 17.1 101140 83
2009-07-13 07:48:55 51°23.397 2°55.556 1.6 280 17.1 101140 83
2009-07-13 07:49:01 51°23.413 2°55.574 1.7 261 17.1 101140 83
2009-07-13 07:49:05 51°23.425 2°55.582 2.9 278 17.1 101140 83
2009-07-13 07:49:10 51°23.439 2°55.598 3.3 264 17.1 101140 83
2009-07-13 07:49:15 51°23.453 2°55.61 2.7 284 17.1 101140 83
2009-07-13 07:49:21 51°23.469 2°55.627 3.1 265 17.1 101150 83
2009-07-13 07:49:25 51°23.481 2°55.638 2.6 278 17.1 101150 83
2009-07-13 07:49:30 51°23.495 2°55.651 2.8 264 17.1 101140 83
2009-07-13 07:49:35 51°23.509 2°55.665 3.4 283 17.1 101140 83
2009-07-13 07:49:41 51°23.526 2°55.68 3.2 267 17.1 101140 83
2009-07-13 07:49:45 51°23.537 2°55.692 2.4 279 17.1 101140 83
2009-07-13 07:49:50 51°23.551 2°55.705 3.3 267 17.1 101130 82
2009-07-13 07:49:55 51°23.565 2°55.719 3 281 17.1 101130 82
2009-07-13 07:50:01 51°23.582 2°55.736 3.5 263 17.1 101140 82
2009-07-13 07:50:05 51°23.594 2°55.746 2.6 17 17.1 101140 82
2009-07-13 07:50:10 51°23.607 2°55.761 2.5 266 17.1 101140 82
2009-07-13 07:50:15 51°23.622 2°55.773 3.5 283 17.1 101140 82
2009-07-13 07:50:20 51°23.636 2°55.787 3 268 17.1 101140 82
2009-07-13 07:50:25 51°23.649 2°55.801 3.7 284 17.1 101140 82
2009-07-13 07:50:31 51°23.667 2°55.815 2.6 268 17 101140 82
2009-07-13 07:50:35 51°23.677 2°55.828 2 286 17 101140 82
2009-07-13 07:50:40 51°23.691 2°55.84 3 261 17 101140 82
2009-07-13 07:50:45 51°23.705 2°55.853 2 281 17 101140 82
2009-07-13 07:50:50 51°23.718 2°55.868 2.2 262 17 101140 82
2009-07-13 07:50:56 51°23.735 2°55.884 1.3 280 17 101140 82
2009-07-13 07:51:01 51°23.749 2°55.895 3 263 17 101140 81
2009-07-13 07:51:05 51°23.76 2°55.907 2.1 74 17 101140 81
2009-07-13 07:51:10 51°23.773 2°55.921 1.9 265 17 101140 81
2009-07-13 07:51:15 51°23.788 2°55.933 2.5 282 17.1 101130 83
2009-07-13 07:51:21 51°23.805 2°55.95 3.2 257 17.1 101140 83
2009-07-13 07:51:25 51°23.816 2°55.96 2.2 285 17.1 101140 83
2009-07-13 07:51:30 51°23.83 2°55.974 2.6 264 17.1 101140 83
2009-07-13 07:51:36 51°23.847 2°55.99 2.6 282 17.1 101140 84
2009-07-13 07:51:41 51°23.861 2°56.004 3.4 261 17.1 101140 84
2009-07-13 07:51:45 51°23.873 2°56.013 1.8 279 17.1 101140 84
2009-07-13 07:51:50 51°23.886 2°56.029 3.2 265 17.1 101140 84
2009-07-13 07:51:55 51°23.901 2°56.038 2.4 85 17.1 101140 83
2009-07-13 07:52:01 51°23.917 2°56.057 2.3 269 17.1 101140 84
2009-07-13 07:52:05 51°23.929 2°56.066 2.1 277 17.1 101140 84
2009-07-13 07:52:10 51°23.943 2°56.08 1.4 265 17.1 101140 83
2009-07-13 07:52:15 51°23.957 2°56.094 1.6 281 17.1 101140 83
2009-07-13 07:52:21 51°23.974 2°56.11 2 265 17.1 101140 83
2009-07-13 07:52:25 51°23.986 2°56.121 1.7 -999 17.1 101140 83
2009-07-13 07:52:30 51°24.001 2°56.134 1.7 265 17.1 101140 83
2009-07-13 07:52:35 51°24.015 2°56.149 2.6 283 17.1 101140 83
2009-07-13 07:52:41 51°24.032 2°56.163 2.3 273 17.1 101140 83
2009-07-13 07:52:45 51°24.043 2°56.176 2.8 280 17 101140 82
2009-07-13 07:52:51 51°24.06 2°56.191 2.2 43 17 101140 82
2009-07-13 07:52:55 51°24.071 2°56.203 3.4 86 17 101140 82
2009-07-13 07:53:01 51°24.088 2°56.218 2.2 39 17 101140 82
2009-07-13 07:53:05 51°24.099 2°56.23 2.7 81 17 101140 80
2009-07-13 07:53:11 51°24.116 2°56.245 3 37 17 101140 80
2009-07-13 07:53:15 51°24.127 2°56.257 2 83 17 101140 82
2009-07-13 07:53:21 51°24.144 2°56.272 2.2 266 17 101140 82
2009-07-13 07:53:25 51°24.156 2°56.282 2.3 270 17 101140 82
2009-07-13 07:53:30 51°24.17 2°56.297 2.2 38 17 101140 82
2009-07-13 07:53:36 51°24.187 2°56.312 2.6 88 17 101140 82
2009-07-13 07:53:41 51°24.201 2°56.327 1.7 42 17 101140 82
2009-07-13 07:53:45 51°24.212 2°56.337 2.6 280 17 101140 82
2009-07-13 07:53:50 51°24.226 2°56.351 2.6 270 17 101140 82
2009-07-13 07:53:55 51°24.24 2°56.364 3.4 80 17.1 101140 83
2009-07-13 07:54:01 51°24.257 2°56.382 3.6 41 17.1 101140 83
2009-07-13 07:54:05 51°24.269 2°56.391 3 79 17.1 101140 83
2009-07-13 07:54:11 51°24.284 2°56.41 3.3 32 17.1 101140 83
2009-07-13 07:54:15 51°24.296 2°56.419 2.6 82 17.1 101140 83
2009-07-13 07:54:21 51°24.312 2°56.437 2.6 33 17.1 101150 83
2009-07-13 07:54:25 51°24.324 2°56.448 2.8 75 17.1 101150 83
2009-07-13 07:54:30 51°24.338 2°56.461 3.3 41 17.1 101140 83
2009-07-13 07:54:35 51°24.352 2°56.475 2.8 82 17.1 101140 83
2009-07-13 07:54:41 51°24.369 2°56.492 2.4 38 17.1 101150 83
2009-07-13 07:54:45 51°24.381 2°56.501 2.6 73 17.1 101150 83
2009-07-13 07:54:50 51°24.394 2°56.515 1.7 40 17.1 101140 83
2009-07-13 07:54:55 51°24.408 2°56.53 2.7 80 17.1 101140 83
2009-07-13 07:55:01 51°24.425 2°56.546 2.2 33 17 101140 82
2009-07-13 07:55:05 51°24.436 2°56.557 2.3 81 17 101140 82
2009-07-13 07:55:10 51°24.451 2°56.569 2.4 39 17 101140 83
2009-07-13 07:55:15 51°24.464 2°56.584 1.8 78 17 101140 83
2009-07-13 07:55:21 51°24.48 2°56.601 1.3 38 17 101140 82
2009-07-13 07:55:25 51°24.492 2°56.61 2.8 -999 17 101140 82
2009-07-13 07:55:29 51°24.503 2°56.622 2.4 37 17 101140 82
2009-07-13 07:55:35 51°24.52 2°56.637 3.6 82 17 101140 82
2009-07-13 07:55:41 51°24.536 2°56.655 2.3 39 17 101140 82
2009-07-13 07:55:45 51°24.547 2°56.665 2.6 78 17 101140 82
2009-07-13 07:55:50 51°24.561 2°56.679 2.2 40 17 101140 82
2009-07-13 07:55:56 51°24.578 2°56.694 2.5 80 17 101140 82
2009-07-13 07:56:01 51°24.591 2°56.711 1.8 33 17 101140 82
2009-07-13 07:56:05 51°24.603 2°56.718 2.8 79 17 101140 82
2009-07-13 07:56:10 51°24.617 2°56.733 2 38 17 101140 82
2009-07-13 07:56:15 51°24.631 2°56.746 2.9 86 17 101140 82
2009-07-13 07:56:21 51°24.648 2°56.763 2 41 17 101140 82
2009-07-13 07:56:25 51°24.659 2°56.775 2.7 290 17 101140 82
2009-07-13 07:56:30 51°24.674 2°56.787 1.9 270 17 101140 82
2009-07-13 07:56:35 51°24.687 2°56.802 2.7 277 17 101140 82
2009-07-13 07:56:41 51°24.705 2°56.816 2.5 43 17 101140 83
2009-07-13 07:56:45 51°24.715 2°56.83 2.5 75 17 101140 83
2009-07-13 07:56:50 51°24.73 2°56.841 2.3 35 17 101140 82
2009-07-13 07:56:55 51°24.744 2°56.856 2.3 77 17 101140 82
2009-07-13 07:57:01 51°24.761 2°56.871 2.7 33 17 101140 82
2009-07-13 07:57:05 51°24.771 2°56.883 2.2 84 17 101140 83
2009-07-13 07:57:10 51°24.785 2°56.895 2.4 41 17 101140 83
2009-07-13 07:57:15 51°24.799 2°56.91 1.2 78 17 101140 83
2009-07-13 07:57:21 51°24.816 2°56.924 2.6 270 17 101140 83
2009-07-13 07:57:25 51°24.827 2°56.935 1.7 -999 17 101140 83
2009-07-13 07:57:30 51°24.84 2°56.951 2.3 41 17 101140 83
2009-07-13 07:57:35 51°24.855 2°56.961 1.9 82 17 101140 83
2009-07-13 07:57:41 51°24.871 2°56.98 2.2 40 17 101130 83
2009-07-13 07:57:45 51°24.882 2°56.989 3.1 80 17 101130 83
2009-07-13 07:57:51 51°24.899 2°57.006 1.6 34 17 101130 83
2009-07-13 07:57:56 51°24.913 2°57.019 2.9 82 17 101140 83
2009-07-13 07:58:01 51°24.927 2°57.032 2.1 37 17 101140 83
2009-07-13 07:58:05 51°24.938 2°57.043 2.5 82 17 101140 83
2009-07-13 07:58:10 51°24.952 2°57.056 4.2 38 17 101140 83
2009-07-13 07:58:15 51°24.966 2°57.069 2 76 17 101140 83
2009-07-13 07:58:21 51°24.982 2°57.086 3 39 17 101140 83
2009-07-13 07:58:25 51°24.993 2°57.095 2 75 17 101140 83
2009-07-13 07:58:30 51°25.006 2°57.111 2.7 33 17 101140 83
2009-07-13 07:58:35 51°25.021 2°57.121 2.1 75 17 101140 82
2009-07-13 07:58:41 51°25.036 2°57.14 1.7 33 17 101150 82
2009-07-13 07:58:45 51°25.049 2°57.147 2.1 76 17 101150 82
2009-07-13 07:58:50 51°25.062 2°57.162 1.5 38 17 101140 82
2009-07-13 07:58:55 51°25.076 2°57.174 2.5 81 17 101140 82
2009-07-13 07:59:01 51°25.093 2°57.19 2.2 39 16.9 101140 82
2009-07-13 07:59:05 51°25.103 2°57.201 3.3 77 16.9 101140 82
2009-07-13 07:59:11 51°25.12 2°57.216 2.4 38 16.9 101140 82
2009-07-13 07:59:15 51°25.13 2°57.229 2.3 82 16.9 101150 82
2009-07-13 07:59:20 51°25.146 2°57.238 2.9 39 16.9 101150 82
2009-07-13 07:59:25 51°25.158 2°57.255 2.7 -999 16.9 101140 83
2009-07-13 07:59:30 51°25.173 2°57.266 2.8 37 17 101140 83
2009-07-13 07:59:35 51°25.186 2°57.28 2.7 77 17 101140 83
2009-07-13 07:59:41 51°25.203 2°57.297 2.3 40 17 101140 83
2009-07-13 07:59:45 51°25.214 2°57.307 1.6 284 17 101130 84
2009-07-13 07:59:50 51°25.228 2°57.321 1.7 261 17 101140 83
2009-07-13 07:59:55 51°25.242 2°57.333 2.9 286 17 101140 83
2009-07-13 08:00:01 51°25.258 2°57.35 2.1 256 17 101150 83
2009-07-13 08:00:05 51°25.27 2°57.361 1.7 281 17 101150 83
2009-07-13 08:00:10 51°25.284 2°57.373 1.9 268 17 101140 83
2009-07-13 08:00:15 51°25.297 2°57.388 2.9 6 17 101140 83
2009-07-13 08:00:21 51°25.314 2°57.403 2.6 264 17.1 101140 85
2009-07-13 08:00:25 51°25.326 2°57.414 3.5 84 17.1 101140 85
2009-07-13 08:00:30 51°25.34 2°57.427 2.3 34 17.1 101140 85
2009-07-13 08:00:35 51°25.353 2°57.442 3.5 284 17.1 101150 85
2009-07-13 08:00:41 51°25.371 2°57.455 2.8 40 17.1 101150 85
2009-07-13 08:00:45 51°25.381 2°57.47 3.5 80 17.1 101150 85
2009-07-13 08:00:50 51°25.397 2°57.479 3.1 38 17.1 101150 84
2009-07-13 08:00:56 51°25.412 2°57.498 3.1 289 17.1 101150 84
2009-07-13 08:01:01 51°25.427 2°57.508 2.1 42 17.1 101150 84
2009-07-13 08:01:05 51°25.437 2°57.522 1.9 287 17.1 101150 84
2009-07-13 08:01:09 51°25.449 2°57.531 2.5 264 17.1 101140 84
2009-07-13 08:01:15 51°25.465 2°57.548 2.9 281 17.1 101140 84
2009-07-13 08:01:21 51°25.482 2°57.563 2.9 267 17.1 101140 83
2009-07-13 08:01:25 51°25.493 2°57.573 3.9 -999 17.1 101140 83
2009-07-13 08:01:31 51°25.509 2°57.591 3 40 17.1 101140 83
2009-07-13 08:01:35 51°25.521 2°57.599 2.8 81 17.1 101150 84
2009-07-13 08:01:40 51°25.535 2°57.612 2.2 42 17.1 101150 84
2009-07-13 08:01:45 51°25.548 2°57.626 3.4 74 17.1 101160 84
2009-07-13 08:01:50 51°25.563 2°57.638 2.6 40 17.1 101160 84
2009-07-13 08:01:56 51°25.579 2°57.654 3.5 76 17.1 101160 84
2009-07-13 08:02:01 51°25.593 2°57.668 3.3 38 17.1 101160 84
2009-07-13 08:02:05 51°25.604 2°57.678 3 279 17.1 101150 84
2009-07-13 08:02:10 51°25.618 2°57.692 2.6 267 17.2 101150 84
2009-07-13 08:02:16 51°25.636 2°57.707 3.8 76 17.2 101150 84
2009-07-13 08:02:21 51°25.649 2°57.721 3.7 37 17.2 101150 84
2009-07-13 08:02:25 51°25.661 2°57.731 4.2 77 17.2 101150 84
2009-07-13 08:02:30 51°25.675 2°57.742 2.9 31 17.2 101160 84
2009-07-13 08:02:35 51°25.689 2°57.758 4.2 82 17.2 101160 84
2009-07-13 08:02:41 51°25.706 2°57.771 3.9 40 17.2 101150 84
2009-07-13 08:02:45 51°25.716 2°57.783 2.8 82 17.2 101150 84
2009-07-13 08:02:50 51°25.731 2°57.795 3.4 38 17.2 101150 84
2009-07-13 08:02:55 51°25.744 2°57.809 2.6 77 17.1 101150 83
2009-07-13 08:03:01 51°25.76 2°57.824 3.1 39 17.1 101150 82
2009-07-13 08:03:05 51°25.771 2°57.834 2 80 17.1 101150 82
2009-07-13 08:03:10 51°25.784 2°57.85 2.7 266 17.1 101160 82
2009-07-13 08:03:15 51°25.799 2°57.86 2 279 17.1 101160 82
2009-07-13 08:03:21 51°25.814 2°57.878 2.5 42 17.1 101150 82
2009-07-13 08:03:25 51°25.826 2°57.886 2.4 73 17.1 101150 82
2009-07-13 08:03:30 51°25.839 2°57.902 1.9 35 17.1 101160 83
2009-07-13 08:03:35 51°25.854 2°57.913 3.2 83 17.1 101160 83
2009-07-13 08:03:41 51°25.869 2°57.932 1.5 39 17.1 101160 83
2009-07-13 08:03:45 51°25.881 2°57.939 2.9 84 17.1 101160 83
2009-07-13 08:03:50 51°25.894 2°57.953 1.8 38 17.1 101160 83
2009-07-13 08:03:55 51°25.907 2°57.967 3.3 82 17.1 101160 83
2009-07-13 08:04:01 51°25.924 2°57.981 2.5 34 17.1 101160 83
2009-07-13 08:04:06 51°25.938 2°57.995 3.5 78 17.1 101160 83
2009-07-13 08:04:10 51°25.949 2°58.005 3.5 40 17.1 101160 83
2009-07-13 08:04:15 51°25.963 2°58.018 3.6 76 17.1 101160 83
2009-07-13 08:04:20 51°25.975 2°58.033 4.2 33 17.1 101160 83
2009-07-13 08:04:25 51°25.99 2°58.043 4.4 29 17.1 101150 84
2009-07-13 08:04:30 51°26.004 2°58.057 2.9 35 17.1 101150 83
2009-07-13 08:04:36 51°26.021 2°58.07 4.4 76 17.1 101150 83
2009-07-13 08:04:41 51°26.034 2°58.085 3.3 33 17.1 101150 83
2009-07-13 08:04:45 51°26.046 2°58.093 3.3 81 17.1 101160 83
2009-07-13 08:04:50 51°26.06 2°58.107 2.6 33 17.1 101150 82
2009-07-13 08:04:56 51°26.077 2°58.121 3.6 81 17.1 101150 82
2009-07-13 08:05:01 51°26.091 2°58.134 3.2 39 17.1 101150 82
2009-07-13 08:05:05 51°26.102 2°58.145 2.5 83 17 101150 82
2009-07-13 08:05:10 51°26.115 2°58.158 4.1 34 17 101150 82
2009-07-13 08:05:15 51°26.13 2°58.168 2.7 76 17 101150 82
2009-07-13 08:05:21 51°26.146 2°58.185 4.1 34 17 101150 82
2009-07-13 08:05:25 51°26.158 2°58.194 2.5 -999 17 101150 82
2009-07-13 08:05:30 51°26.171 2°58.208 3.3 267 17 101150 82
2009-07-13 08:05:35 51°26.184 2°58.218 3.4 74 17 101150 83
2009-07-13 08:05:41 51°26.198 2°58.23 4.8 36 17 101160 83
2009-07-13 08:05:45 51°26.206 2°58.237 3.8 76 17 101160 83
2009-07-13 08:05:50 51°26.217 2°58.246 4.4 39 17 101160 83
2009-07-13 08:05:55 51°26.226 2°58.254 4 82 17 101150 84
2009-07-13 08:06:01 51°26.237 2°58.263 3.8 37 17.1 101150 84
2009-07-13 08:06:05 51°26.244 2°58.269 4.3 79 17.1 101150 84
2009-07-13 08:06:10 51°26.252 2°58.276 4.9 40 17.1 101150 85
2009-07-13 08:06:15 51°26.26 2°58.283 5 74 17.1 101150 85
2009-07-13 08:06:21 51°26.269 2°58.291 4.7 31 17.1 101150 85
2009-07-13 08:06:25 51°26.274 2°58.296 6.2 75 17.1 101150 85
2009-07-13 08:06:30 51°26.281 2°58.302 5.9 39 17.1 101150 84
2009-07-13 08:06:35 51°26.287 2°58.308 7.3 84 17.1 101150 84
2009-07-13 08:06:41 51°26.295 2°58.314 7 34 17.1 101150 84
2009-07-13 08:06:45 51°26.3 2°58.318 7.4 81 17.1 101140 85
2009-07-13 08:06:50 51°26.306 2°58.323 7.1 37 17 101150 84
2009-07-13 08:06:56 51°26.313 2°58.33 6.8 81 17 101150 84
2009-07-13 08:07:01 51°26.318 2°58.334 6.2 39 17 101150 84
2009-07-13 08:07:05 51°26.323 2°58.338 7.1 76 17 101150 83
2009-07-13 08:07:10 51°26.328 2°58.343 6.5 35 17 101150 83
2009-07-13 08:07:15 51°26.334 2°58.347 6 74 16.9 101150 82
2009-07-13 08:07:21 51°26.34 2°58.352 6.5 33 16.8 101140 82
2009-07-13 08:07:25 51°26.344 2°58.355 6.5 -999 16.8 101140 82
2009-07-13 08:07:30 51°26.349 2°58.359 6.2 39 16.8 101150 82
2009-07-13 08:07:35 51°26.354 2°58.363 6.4 77 16.8 101150 82
2009-07-13 08:07:41 51°26.36 2°58.367 6.3 36 16.8 101150 82
2009-07-13 08:07:45 51°26.364 2°58.37 5.3 80 16.8 101150 83
2009-07-13 08:07:49 51°26.368 2°58.373 5.6 37 16.8 101150 83
2009-07-13 08:07:55 51°26.373 2°58.377 6.5 83 16.8 101150 83
2009-07-13 08:08:01 51°26.379 2°58.38 5.8 36 16.9 101140 84
2009-07-13 08:08:05 51°26.383 2°58.383 6.3 76 16.9 101140 84
2009-07-13 08:08:10 51°26.388 2°58.386 6.7 36 16.9 101150 85
2009-07-13 08:08:15 51°26.392 2°58.39 6.6 82 16.9 101150 85
2009-07-13 08:08:21 51°26.398 2°58.393 6.6 38 16.9 101150 85
2009-07-13 08:08:25 51°26.401 2°58.396 6 81 16.8 101150 84
2009-07-13 08:08:30 51°26.406 2°58.399 6.1 33 16.8 101140 84
2009-07-13 08:08:35 51°26.41 2°58.403 6.6 75 16.8 101140 84
2009-07-13 08:08:41 51°26.416 2°58.406 5.9 32 16.8 101140 84
2009-07-13 08:08:45 51°26.419 2°58.409 6.2 80 16.8 101150 84
2009-07-13 08:08:51 51°26.425 2°58.412 5.8 32 16.8 101150 84
2009-07-13 08:08:56 51°26.429 2°58.416 6 75 16.8 101150 84
2009-07-13 08:09:01 51°26.433 2°58.419 7 31 16.8 101150 84
2009-07-13 08:09:05 51°26.437 2°58.421 6.7 80 16.8 101150 84
2009-07-13 08:09:10 51°26.441 2°58.424 6.4 33 16.8 101150 85
2009-07-13 08:09:15 51°26.445 2°58.427 7.8 76 16.8 101150 85
2009-07-13 08:09:21 51°26.451 2°58.431 6.5 34 16.8 101150 86
2009-07-13 08:09:25 51°26.454 2°58.433 7 77 16.8 101150 86
2009-07-13 08:09:30 51°26.458 2°58.436 7.9 33 16.8 101150 87
2009-07-13 08:09:35 51°26.463 2°58.439 7.6 78 16.8 101150 87
2009-07-13 08:09:41 51°26.468 2°58.443 6.8 33 16.8 101150 86
2009-07-13 08:09:45 51°26.471 2°58.445 6.8 77 16.8 101150 86
2009-07-13 08:09:50 51°26.475 2°58.448 6.7 37 16.8 101150 86
2009-07-13 08:09:56 51°26.48 2°58.452 5.7 83 16.8 101150 85
2009-07-13 08:10:01 51°26.485 2°58.454 6.1 40 16.8 101150 85
2009-07-13 08:10:05 51°26.488 2°58.456 6.1 75 16.7 101150 84
2009-07-13 08:10:10 51°26.492 2°58.46 6.3 41 16.7 101150 84
2009-07-13 08:10:15 51°26.496 2°58.462 5.5 78 16.7 101150 84
2009-07-13 08:10:21 51°26.502 2°58.466 6 39 16.7 101150 84
2009-07-13 08:10:25 51°26.505 2°58.467 5.7 75 16.7 101150 84
2009-07-13 08:10:30 51°26.509 2°58.47 5.6 36 16.7 101150 85
2009-07-13 08:10:35 51°26.513 2°58.473 6.6 82 16.7 101150 85
2009-07-13 08:10:41 51°26.518 2°58.476 5.6 37 16.7 101150 85
2009-07-13 08:10:45 51°26.522 2°58.479 7.3 74 16.7 101150 85
2009-07-13 08:10:50 51°26.526 2°58.481 7.1 37 16.7 101150 85
2009-07-13 08:10:55 51°26.53 2°58.484 7.5 82 16.7 101150 85
2009-07-13 08:11:01 51°26.535 2°58.488 6.8 35 16.7 101150 85